Regional Weather Roundup
Issued by NWS Sioux Falls, SD

Home | Current Version | Previous Version | Text Only | Print | Product List | Glossary Off
Versions: 1 2 3 4 5 6 7 8 9 10 11 12 13 14 15 16 17 18 19 20 21 22 23 24 25 26 27 28 29 30 31 32 33 34 35 36 37 38 39 40 41 42 43 44 45 46 47 48 49 50

000
ASUS43 KFSD 290010
RWRFSD

WEATHER ROUNDUP FOR SE SOUTH DAKOTA/SW MINNESOTA/NW IOWA
NATIONAL WEATHER SERVICE SIOUX FALLS SD
700 PM CDT SUN MAY 28 2017

NOTE: "FAIR" INDICATES FEW OR NO CLOUDS BELOW 12,000 FEET WITH NO
SIGNIFICANT WEATHER AND OR OBSTRUCTIONS TO VISIBILITY.


SDZ038>040-050-052>070-290100-
SOUTHEAST SOUTH DAKOTA

CITY           SKY/WX    TMP DP  RH WIND       PRES   REMARKS
BROOKINGS      TSTM      54  49  83 W8        29.89R
CHAMBERLAIN    CLOUDY    74  42  31 W14G22    29.90F
6HR MIN TEMP:  71; 6HR MAX TEMP:  81;

HURON          CLOUDY    72  47  40 N16       29.83R
6HR MIN TEMP:  65; 6HR MAX TEMP:  78; 6HR PCP: TRACE;

MADISON        LGT RAIN  63  45  51 N31G48    29.87R
MITCHELL       CLOUDY    75  38  26 NW20G32   29.85S
6HR MIN TEMP:  75; 6HR MAX TEMP:  80;

SIOUX FALLS    PTSUNNY   74  40  29 NW15G26   29.82F
6HR MIN TEMP:  70; 6HR MAX TEMP:  75;

WINNER         CLOUDY    68  44  42 NW14      29.96R
YANKTON        SUNNY     75  40  28 W17       29.87F
$$

MNZ071-072-080-081-089-090-097-098-290100-
SOUTHWEST MINNESOTA

CITY           SKY/WX    TMP DP  RH WIND       PRES   REMARKS
FAIRMONT       MOSUNNY   72  38  29 NW21G28   29.79S
JACKSON        SUNNY     70  34  26 NW18G26   29.82S
LUVERNE        MOSUNNY   72  32  23 NW16      29.83S
MARSHALL       LGT RAIN  67  42  40 NW18G33   29.81R
6HR MIN TEMP:  66; 6HR MAX TEMP:  74; 6HR PCP: TRACE;

MONTEVIDEO     CLOUDY    63  45  51 N14G23    29.81F
PIPESTONE      MOSUNNY   70  30  23 N10G17    29.83S
REDWOOD FALLS  CLOUDY    68  39  34 NW24G36   29.79R
TRACY          CLOUDY    69  44  40 NW16      29.83R
WINDOM         SUNNY     72  36  26 NW17G25   29.81R
WORTHINGTON    PTSUNNY   71  39  31 NW20G26   29.83S
$$

IAZ001>003-012>014-020>022-031-032-NEZ013-014-SDZ071-290100-
NORTHWEST IOWA

CITY           SKY/WX    TMP DP  RH WIND       PRES   REMARKS
CHEROKEE       MOSUNNY   73  37  27 NW17G25   29.84F
DENISON        SUNNY     73  41  31 NW12G18   29.88F
ESTHERVILLE    MOSUNNY   72  37  28 NW25G33   29.80S
LE MARS        SUNNY     75  37  25 NW18G25   29.86S
ORANGE CITY    SUNNY     73  43  33 NW17G25   29.85S
SHELDON        SUNNY     75  36  23 W16G26    29.82S
SIOUX CITY     MOSUNNY   77  40  26 NW15      29.86S
6HR MIN TEMP:  74; 6HR MAX TEMP:  78;

SPENCER        SUNNY     73  39  29 NW15      29.82F
6HR MIN TEMP:  70; 6HR MAX TEMP:  76;

STORM LAKE     SUNNY     73  37  27 NW20G28   29.85F
$$

ABBREVIATIONS USED IN REMARKS
   TC - TEMPERATURE IN CELSIUS
  WCI - WIND CHILL INDEX
   HX - HEAT INDEX
  VSB - VISIBILITY





USA.gov is the U.S. government's official web portal to all federal, state and local government web resources and services.